Del Rio, TX

2:39 PM CDT on July 23, 2017 (GMT -0500)
Del Rio International

Weather History for KDRT - October, 2012

Change the Weather History Date:

Tuesday, October 9, 2012

  Actual Average Record
Temperature  
Mean Temperature 70 °F 74 °F  
Max Temperature 83 °F 84 °F 95 °F (1956)
Min Temperature 57 °F 63 °F 39 °F (1976)
Degree Days  
Heating Degree Days 0 0  
Month to date heating degree days 11 0  
Since 1 July heating degree days 11 1  
Cooling Degree Days 5 9  
Month to date cooling degree days 83 91  
Year to date cooling degree days 3755 3186  
Growing Degree Days 20 (Base 50)    
Moisture  
Dew Point 57 °F    
Average Humidity 64    
Maximum Humidity 80    
Minimum Humidity 47    
Precipitation  
Precipitation 0.00 in 0.08 in 2.45 in (1945)
Month to date precipitation 0.02 0.78  
Year to date precipitation 13.74 16.49  
Sea Level Pressure  
Sea Level Pressure 29.97 in    
Wind  
Wind Speed 8 mph (SE)    
Max Wind Speed 16 mph    
Max Gust Speed 20 mph    
Visibility 10 miles    
Events      
T = Trace of Precipitation, MM = Missing Value Source: NWS Daily Summary

Daily Weather History Graph

Daily Weather History Graph

Search for Another Location

Airport or City:

Trip Planner

Search our weather history database for the weather conditions in past years. The results will help you decide how hot, cold, wet, or windy it might be!

Date:

Astronomy

Oct. 09, 2012 Rise Set
Actual Time 7:41 AM CDT 7:19 PM CDT
Civil Twilight 7:17 AM CDT 7:43 PM CDT
Nautical Twilight 6:50 AM CDT 8:10 PM CDT
Astronomical Twilight 6:22 AM CDT 8:38 PM CDT
Moon 1:46 AM CDT (10/9) 3:23 PM CDT (10/9)
Length of Visible Light 12h 25m
Length of Day
11h 37m
Last Quarter, 36% of the Moon is Illuminated
Oct 9
Last Quarter
Oct 15
New
Oct 21
First Quarter
Oct 29
Full
Nov 6
Last Quarter

Hourly Weather History & Observations

Time (CDT) Temp. Heat Index Dew Point Humidity Pressure Visibility Wind Dir Wind Speed Gust Speed Precip Events Conditions
12:53 AM 61.0 °F - 51.1 °F 70% 30.00 in 10.0 mi ESE 10.4 mph - N/A   Clear
1:53 AM 60.1 °F - 51.1 °F 72% 29.99 in 10.0 mi ESE 10.4 mph - N/A   Clear
2:53 AM 60.8 °F - 51.8 °F 72% 30.01 in 10.0 mi ESE 8.1 mph - N/A   Clear
3:53 AM 59.0 °F - 51.8 °F 77% 30.01 in 10.0 mi ESE 9.2 mph - N/A   Clear
4:53 AM 57.9 °F - 52.0 °F 81% 29.97 in 10.0 mi ESE 6.9 mph - N/A   Clear
5:53 AM 57.0 °F - 51.1 °F 81% 29.98 in 10.0 mi ESE 5.8 mph - N/A   Clear
6:25 AM 57.2 °F - 51.8 °F 82% 30.02 in 10.0 mi ESE 5.8 mph - N/A   Mostly Cloudy
6:53 AM 59.0 °F - 52.0 °F 78% 29.99 in 10.0 mi ESE 8.1 mph - N/A   Overcast
7:42 AM 59.0 °F - 51.8 °F 77% 30.03 in 10.0 mi SE 8.1 mph - N/A   Scattered Clouds
7:53 AM 59.0 °F - 53.1 °F 81% 30.01 in 10.0 mi ESE 8.1 mph - N/A   Mostly Cloudy
8:07 AM 60.8 °F - 53.6 °F 77% 30.04 in 10.0 mi ESE 8.1 mph - N/A   Overcast
8:53 AM 61.0 °F - 53.1 °F 75% 30.02 in 10.0 mi South 5.8 mph - N/A   Overcast
9:22 AM 60.8 °F - 53.6 °F 77% 30.06 in 10.0 mi SSE 4.6 mph - N/A   Overcast
9:53 AM 63.0 °F - 55.0 °F 75% 30.04 in 10.0 mi SE 5.8 mph - N/A   Overcast
10:53 AM 64.9 °F - 55.9 °F 73% 30.04 in 10.0 mi SE 6.9 mph - N/A   Overcast
11:53 AM 69.1 °F - 57.9 °F 68% 30.02 in 10.0 mi SE 9.2 mph - N/A   Mostly Cloudy
12:31 PM 71.6 °F - 59.0 °F 64% 30.03 in 10.0 mi SSE 11.5 mph - N/A   Scattered Clouds
12:53 PM 73.0 °F - 60.1 °F 64% 29.99 in 10.0 mi SE 9.2 mph - N/A   Mostly Cloudy
1:15 PM 73.4 °F - 60.8 °F 65% 30.01 in 10.0 mi ESE 6.9 mph - N/A   Scattered Clouds
1:53 PM 75.9 °F - 61.0 °F 60% 29.96 in 10.0 mi SSE 5.8 mph - N/A   Clear
2:53 PM 79.0 °F - 61.0 °F 54% 29.91 in 10.0 mi SE 10.4 mph 17.3 mph N/A   Clear
3:53 PM 81.0 °F 81.6 °F 60.1 °F 49% 29.89 in 10.0 mi SE 9.2 mph - N/A   Clear
4:53 PM 82.0 °F 82.4 °F 60.1 °F 47% 29.87 in 10.0 mi SE 12.7 mph - N/A   Clear
5:53 PM 82.0 °F 82.4 °F 60.1 °F 47% 29.87 in 10.0 mi SE 10.4 mph - N/A   Clear
6:53 PM 81.0 °F 81.7 °F 61.0 °F 50% 29.87 in 10.0 mi ESE 8.1 mph - N/A   Clear
7:53 PM 77.0 °F - 63.0 °F 62% 29.88 in 10.0 mi East 9.2 mph - N/A   Clear
8:53 PM 75.0 °F - 63.0 °F 66% 29.91 in 10.0 mi East 8.1 mph - N/A   Clear
9:53 PM 72.0 °F - 63.0 °F 73% 29.92 in 10.0 mi East 6.9 mph - N/A   Clear
10:53 PM 72.0 °F - 63.0 °F 73% 29.93 in 10.0 mi East 5.8 mph - N/A   Clear
11:53 PM 70.0 °F - 63.0 °F 78% 29.93 in 10.0 mi SE 3.5 mph - N/A   Clear